This is the latest recevied weather packets stored in our database for station/object JS2WAD-13. If no packets are shown the sender has not sent any weather packets the latest 10 day(s).
| Time | Temp. | Humidity | Pressure | Rain* | Wind** | Luminosity | Snow |
|---|---|---|---|---|---|---|---|
| 1777665695 | 15° C | 72% | 898.5 hPa | 0 mm | - | 0 W/m² | - |
| 1777665395 | 15° C | 72% | 898.4 hPa | 0 mm | - | 0 W/m² | - |
| 1777665095 | 15° C | 73% | 898.3 hPa | 0 mm | - | 0 W/m² | - |
| 1777664795 | 14.44° C | 77% | 898.3 hPa | 0 mm | - | 0 W/m² | - |
| 1777664495 | 14.44° C | 75% | 898.2 hPa | 0 mm | - | 0 W/m² | - |
| 1777664195 | 14.44° C | 76% | 898.1 hPa | 0 mm | - | 0 W/m² | - |
| 1777663895 | 14.44° C | 76% | 898 hPa | 0 mm | - | 0 W/m² | - |
| 1777663595 | 14.44° C | 77% | 897.9 hPa | 0 mm | - | 0 W/m² | - |
| 1777663295 | 14.44° C | 76% | 897.9 hPa | 0 mm | - | 0 W/m² | - |
| 1777662995 | 14.44° C | 76% | 897.8 hPa | 0 mm | - | 0 W/m² | - |
| 1777662695 | 14.44° C | 75% | 897.8 hPa | 0 mm | - | 0 W/m² | - |
| 1777662395 | 14.44° C | 76% | 897.6 hPa | 0 mm | - | 0 W/m² | - |
| 1777662095 | 14.44° C | 78% | 897.6 hPa | 0 mm | - | 0 W/m² | - |
| 1777661795 | 14.44° C | 76% | 897.4 hPa | 0 mm | - | 0 W/m² | - |
| 1777661495 | 14.44° C | 75% | 897.3 hPa | 0 mm | - | 0 W/m² | - |
| 1777661195 | 14.44° C | 76% | 897.3 hPa | 0 mm | - | 0 W/m² | - |
| 1777660895 | 14.44° C | 77% | 897.3 hPa | 0 mm | - | 0 W/m² | - |
| 1777660595 | 15° C | 76% | 897.5 hPa | 0 mm | - | 0 W/m² | - |
| 1777660295 | 15° C | 76% | 897.4 hPa | 0 mm | - | 0 W/m² | - |
| 1777659995 | 15° C | 76% | 897.5 hPa | 0 mm | - | 0 W/m² | - |
| 1777659695 | 15° C | 75% | 897.4 hPa | 0 mm | - | 0 W/m² | - |
| 1777659396 | 15° C | 75% | 897.3 hPa | 0 mm | - | 0 W/m² | - |
| 1777659095 | 15° C | 75% | 897.3 hPa | 0 mm | - | 0 W/m² | - |
| 1777658795 | 15° C | 75% | 897.2 hPa | 0 mm | - | 0 W/m² | - |
| 1777658495 | 15° C | 74% | 897.1 hPa | 0 mm | - | 0 W/m² | - |
* Rain latest hour (hover to see other rain measurements)
** Current wind speed in m/s (hover to see current wind gust speed)